[[{"header":{"parameterUnit":"m.s-1","parameterCategory":1,"la1":30.2992,"la2":30.254,"lo1":-89.0895,"lo2":-89.0443,"dy":0.0025,"dx":0.0025,"nx":19,"ny":19,"refTime":"2026-03-27T21:00:00:Z","depth":0,"parameterNumber":2,"parameterNumberName":"U-component_of_WINDS"},"data":[0,0,0,1.2196,1.2196,1.2219,1.2219,1.2238,1.2238,0,0,0,0,0,0,0,0,0,0,0,1.2183,1.2183,1.2196,1.2196,1.2219,1.2219,1.2238,1.2238,0,0,0,0,0,0,0,0,0,0,0,1.2183,1.2183,1.2183,1.2196,1.2219,1.2219,1.2238,1.2224,0,0,0,0,0,0,0,0,0,0,1.2204,1.2187,1.2183,1.2183,1.2196,1.2219,1.2219,1.2224,1.2225,1.2224,0,1.2221,0,1.223,1.2239,1.2239,0,0,0,1.22,1.2185,1.2197,1.2183,1.2196,1.2219,1.221,1.2225,1.2226,1.2226,1.2221,1.2222,1.223,1.2239,1.2239,1.2216,1.2216,0,0,1.2199,1.2184,1.2196,1.2198,1.2193,1.2209,1.221,1.2226,1.222,1.2221,1.2223,1.223,1.2239,1.2239,1.2217,1.2216,0,0,0,1.2193,1.2183,1.2194,1.2197,1.2201,1.2209,1.2211,1.2219,1.2224,1.2223,1.2231,1.2239,1.2239,1.2217,1.2216,1.2187,0,0,0,1.2192,1.2179,1.2193,1.2184,1.2201,1.2211,1.2204,1.2223,1.2226,1.2231,1.2239,1.2239,1.2217,1.2217,1.2188,1.2175,0,0,0,1.2183,1.2178,1.2179,1.2183,1.2193,1.2211,1.2217,1.2224,1.223,1.2239,1.2239,1.2218,1.2217,1.219,1.2178,1.2165,0,0,0,1.217,1.2152,1.2178,1.2161,1.2192,1.2192,1.2217,1.2217,1.2222,1.2239,1.2217,1.2216,1.219,1.2179,1.2167,1.2153,1.2145,0,0,1.2139,1.2148,1.2139,1.2163,1.2155,1.219,1.2177,1.2195,1.221,1.2213,1.2213,1.2188,1.2178,1.2166,1.2108,1.2102,0,0,0,1.2124,1.2117,1.2118,1.2122,1.2135,1.2146,1.2168,1.2175,1.2179,1.2208,1.218,1.2175,1.2168,1.2162,1.2157,1.2153,1.2213,1.2213,1.2213,1.2058,1.2078,1.2065,1.2088,1.2091,1.2114,1.2118,1.2132,1.2151,1.2144,1.2145,1.2107,1.21,1.2096,1.2091,1.2139,1.2139,1.2138,1.2138,1.2014,1.2009,1.2035,1.2032,1.2054,1.2051,1.2073,1.2087,1.2088,1.2108,1.2103,1.2124,1.2089,1.2086,1.2136,1.2137,1.2137,1.2137,1.2137,1.1974,1.1975,1.1984,1.1991,1.1995,1.2019,1.2019,1.2038,1.2057,1.2052,1.2056,1.2057,1.206,1.2052,1.2052,1.2052,1.2052,1.2052,1.2052,1.1928,1.1939,1.1937,1.1951,1.1956,1.1965,1.1989,1.1994,1.2006,1.202,1.202,1.204,1.2081,1.2092,1.205,1.205,1.2051,1.2051,1.2051,1.1878,1.1893,1.1889,1.1894,1.1912,1.1915,1.194,1.195,1.1958,1.1957,1.1978,1.2006,1.2016,1.202,1.2029,1.1974,1.1974,1.1974,1.1974,1.1844,1.1851,1.1853,1.186,1.1869,1.1892,1.1888,1.1906,1.1927,1.1933,1.1944,1.1957,1.196,1.1969,1.1974,1.1983,1.1916,1.1916,1.1916,1.1814,1.1824,1.1816,1.1837,1.1853,1.1866,1.1863,1.1871,1.1898,1.1915,1.1938,1.1941,1.1962,1.1968,1.1985,1.1993,1.2009,0,0]},{"header":{"parameterUnit":"m.s-1","parameterCategory":1,"la1":30.2992,"la2":30.254,"lo1":-89.0895,"lo2":-89.0443,"dy":0.0025,"dx":0.0025,"nx":19,"ny":19,"refTime":"2026-03-27T21:00:00:Z","depth":0,"parameterNumber":3,"parameterNumberName":"V-component_of_WINDS"},"data":[0,0,0,3.18,3.1802,3.1887,3.1887,3.1992,3.1993,0,0,0,0,0,0,0,0,0,0,0,3.1776,3.1777,3.18,3.1802,3.1887,3.1887,3.1992,3.1993,0,0,0,0,0,0,0,0,0,0,0,3.1776,3.1777,3.1778,3.1802,3.1887,3.1887,3.1992,3.1929,0,0,0,0,0,0,0,0,0,0,3.1846,3.1827,3.1777,3.1778,3.1803,3.1887,3.1887,3.1926,3.1933,3.1953,0,3.1975,0,3.1986,3.2,3.2001,0,0,0,3.1801,3.1821,3.1842,3.1778,3.1804,3.1887,3.1848,3.1929,3.1937,3.1962,3.1976,3.198,3.1987,3.2001,3.2002,3.2126,3.2127,0,0,3.1796,3.1792,3.1837,3.1848,3.1837,3.1846,3.1851,3.1934,3.1948,3.1977,3.1983,3.1989,3.2002,3.2003,3.2126,3.2126,0,0,0,3.1784,3.1789,3.1808,3.1843,3.1859,3.1848,3.1854,3.1945,3.1951,3.1984,3.199,3.2002,3.2004,3.2125,3.2126,3.215,0,0,0,3.1781,3.1781,3.1806,3.1805,3.1857,3.1904,3.1863,3.1946,3.1955,3.199,3.2002,3.2005,3.2124,3.2125,3.2148,3.2162,0,0,0,3.177,3.178,3.1793,3.1804,3.1841,3.1902,3.1914,3.1948,3.1959,3.2001,3.2005,3.2124,3.2125,3.2146,3.2159,3.219,0,0,0,3.1758,3.1817,3.1793,3.1861,3.184,3.1918,3.1913,3.1972,3.2011,3.2003,3.2124,3.2126,3.2146,3.2158,3.2188,3.2213,3.2225,0,0,3.183,3.1826,3.1866,3.1847,3.1927,3.1905,3.1988,3.2029,3.2037,3.2095,3.2098,3.2149,3.2159,3.219,3.2292,3.2301,0,0,0,3.1887,3.1915,3.1937,3.1973,3.2005,3.203,3.2058,3.2072,3.212,3.2067,3.217,3.2176,3.2194,3.2206,3.2214,3.2227,3.2132,3.2132,3.2132,3.1984,3.1988,3.2052,3.2065,3.21,3.2124,3.2151,3.2173,3.2172,3.2195,3.2212,3.2273,3.2288,3.2293,3.2307,3.2228,3.2228,3.2228,3.2228,3.2086,3.2125,3.2115,3.2173,3.2176,3.2224,3.2248,3.2243,3.2286,3.2263,3.2279,3.2251,3.2303,3.2315,3.223,3.223,3.2229,3.2229,3.2229,3.2148,3.2166,3.218,3.2227,3.2263,3.2274,3.2313,3.2316,3.2319,3.2334,3.2349,3.2348,3.2345,3.2341,3.2342,3.2342,3.2342,3.2342,3.2342,3.2204,3.2219,3.2253,3.2286,3.2305,3.2331,3.2351,3.237,3.2391,3.2389,3.2389,3.238,3.2308,3.2287,3.2346,3.2345,3.2344,3.2344,3.2344,3.2302,3.2279,3.2331,3.235,3.2384,3.2415,3.2417,3.2453,3.2468,3.2486,3.2473,3.242,3.2416,3.241,3.2393,3.2475,3.2475,3.2475,3.2475,3.2351,3.2349,3.2398,3.2427,3.2456,3.246,3.2513,3.2527,3.2538,3.2546,3.2535,3.2513,3.2507,3.2506,3.2498,3.2482,3.2585,3.2585,3.2585,3.2409,3.2408,3.2454,3.2464,3.2489,3.2509,3.2557,3.2588,3.2596,3.259,3.2552,3.2547,3.2512,3.2502,3.2494,3.2482,3.2453,0,0]}]]